Time,TemperatureF,DewpointF,PressureIn,WindDirection,WindDirectionDegrees,WindSpeedMPH,WindSpeedGustMPH,Humidity,HourlyPrecipIn,Conditions,Clouds,dailyrainin,SoftwareType,DateUTC
2013-02-01 00:08:00,58.4,53.0,30.26,SE,135,4.0,5.0,81,0.00,,,0.00,weatherlink.com 1.10,2013-02-01 06:08:00,
2013-02-01 00:23:00,58.8,53.0,30.26,SE,137,1.0,5.0,81,0.00,,,0.00,weatherlink.com 1.10,2013-02-01 06:23:00,
2013-02-01 00:38:00,59.0,53.0,30.27,SE,138,4.0,5.0,81,0.00,,,0.00,weatherlink.com 1.10,2013-02-01 06:38:00,
2013-02-01 00:53:00,59.2,53.0,30.26,SE,138,1.0,6.0,81,0.00,,,0.00,weatherlink.com 1.10,2013-02-01 06:53:00,
2013-02-01 01:23:00,59.3,54.0,30.26,SSE,148,1.0,6.0,82,0.00,,,0.00,weatherlink.com 1.10,2013-02-01 07:23:00,
2013-02-01 01:38:00,59.2,54.0,30.25,SE,146,2.0,5.0,83,0.00,,,0.00,weatherlink.com 1.10,2013-02-01 07:38:00,
2013-02-01 01:53:00,59.0,54.0,30.25,SSE,157,2.0,5.0,83,0.00,,,0.00,weatherlink.com 1.10,2013-02-01 07:53:00,
2013-02-01 02:08:00,59.0,54.0,30.25,SSE,164,2.0,6.0,83,0.00,,,0.00,weatherlink.com 1.10,2013-02-01 08:08:00,
2013-02-01 02:23:00,58.9,54.0,30.25,SSE,163,1.0,5.0,83,0.00,,,0.00,weatherlink.com 1.10,2013-02-01 08:23:00,
2013-02-01 02:38:00,58.7,53.0,30.25,SSE,156,2.0,3.0,82,0.00,,,0.00,weatherlink.com 1.10,2013-02-01 08:38:00,
2013-02-01 02:53:00,58.4,53.0,30.25,SSE,157,2.0,4.0,82,0.00,,,0.00,weatherlink.com 1.10,2013-02-01 08:53:00,
2013-02-01 03:08:00,58.1,53.0,30.25,SSE,158,0.0,2.0,83,0.00,,,0.00,weatherlink.com 1.10,2013-02-01 09:08:00,
2013-02-01 03:23:00,57.9,53.0,30.25,SSE,159,2.0,5.0,84,0.00,,,0.00,weatherlink.com 1.10,2013-02-01 09:23:00,
2013-02-01 03:38:00,57.7,53.0,30.25,SSE,162,0.0,5.0,84,0.00,,,0.00,weatherlink.com 1.10,2013-02-01 09:38:00,
2013-02-01 03:53:00,57.8,53.0,30.26,SSE,161,4.0,4.0,84,0.00,,,0.00,weatherlink.com 1.10,2013-02-01 09:53:00,
2013-02-01 04:08:00,57.8,53.0,30.27,SSE,166,0.0,4.0,84,0.00,,,0.00,weatherlink.com 1.10,2013-02-01 10:08:00,
2013-02-01 04:23:00,57.9,54.0,30.27,SSE,166,0.0,1.0,85,0.00,,,0.00,weatherlink.com 1.10,2013-02-01 10:23:00,
2013-02-01 04:38:00,57.7,53.0,30.26,SSE,166,0.0,1.0,85,0.00,,,0.00,weatherlink.com 1.10,2013-02-01 10:38:00,
2013-02-01 04:54:00,57.7,54.0,30.27,SSE,166,0.0,0.0,86,0.00,,,0.00,weatherlink.com 1.10,2013-02-01 10:54:00,
2013-02-01 05:08:00,57.7,54.0,30.26,SSE,166,0.0,0.0,86,0.00,,,0.00,weatherlink.com 1.10,2013-02-01 11:08:00,
2013-02-01 05:23:00,57.4,53.0,30.27,SSE,166,0.0,0.0,86,0.00,,,0.00,weatherlink.com 1.10,2013-02-01 11:23:00,
2013-02-01 05:38:00,57.3,54.0,30.27,SSE,166,0.0,0.0,87,0.00,,,0.00,weatherlink.com 1.10,2013-02-01 11:38:00,
2013-02-01 05:54:00,57.5,54.0,30.27,SSE,166,0.0,0.0,87,0.00,,,0.00,weatherlink.com 1.10,2013-02-01 11:54:00,
2013-02-01 06:08:00,57.4,54.0,30.27,SSE,166,0.0,0.0,87,0.00,,,0.00,weatherlink.com 1.10,2013-02-01 12:08:00,
2013-02-01 06:23:00,57.4,54.0,30.27,SE,138,0.0,2.0,87,0.00,,,0.00,weatherlink.com 1.10,2013-02-01 12:23:00,
2013-02-01 06:54:00,57.7,54.0,30.28,SE,138,0.0,1.0,88,0.00,,,0.00,weatherlink.com 1.10,2013-02-01 12:54:00,
2013-02-01 07:09:00,57.6,54.0,30.29,SE,138,0.0,0.0,88,0.00,,,0.00,weatherlink.com 1.10,2013-02-01 13:09:00,
2013-02-01 07:24:00,57.3,54.0,30.30,SE,138,0.0,0.0,89,0.00,,,0.00,weatherlink.com 1.10,2013-02-01 13:24:00,
2013-02-01 07:38:00,57.3,54.0,30.29,SE,138,0.0,0.0,89,0.00,,,0.00,weatherlink.com 1.10,2013-02-01 13:38:00,
2013-02-01 07:53:00,57.3,54.0,30.29,SE,138,1.0,2.0,89,0.00,,,0.00,weatherlink.com 1.10,2013-02-01 13:53:00,
2013-02-01 08:09:00,58.3,55.0,30.29,SE,138,1.0,2.0,89,0.00,,,0.00,weatherlink.com 1.10,2013-02-01 14:09:00,
2013-02-01 08:23:00,60.4,56.0,30.30,South,175,4.0,6.0,84,0.00,,,0.00,weatherlink.com 1.10,2013-02-01 14:23:00,
2013-02-01 08:39:00,61.6,54.0,30.31,SSE,167,8.0,9.0,76,0.00,,,0.00,weatherlink.com 1.10,2013-02-01 14:39:00,
2013-02-01 08:54:00,62.8,54.0,30.31,SSE,167,4.0,8.0,72,0.00,,,0.00,weatherlink.com 1.10,2013-02-01 14:54:00,
2013-02-01 09:09:00,64.3,53.0,30.32,South,173,7.0,9.0,66,0.00,,,0.00,weatherlink.com 1.10,2013-02-01 15:09:00,
2013-02-01 09:24:00,65.1,52.0,30.32,SE,137,9.0,11.0,62,0.00,,,0.00,weatherlink.com 1.10,2013-02-01 15:24:00,
2013-02-01 09:39:00,65.8,51.0,30.33,SE,134,10.0,10.0,59,0.00,,,0.00,weatherlink.com 1.10,2013-02-01 15:39:00,
2013-02-01 09:54:00,66.2,51.0,30.33,SSE,162,8.0,11.0,58,0.00,,,0.00,weatherlink.com 1.10,2013-02-01 15:54:00,
2013-02-01 10:09:00,66.3,50.0,30.33,SE,140,7.0,10.0,57,0.00,,,0.00,weatherlink.com 1.10,2013-02-01 16:09:00,
2013-02-01 10:24:00,66.2,49.0,30.34,SSE,149,6.0,12.0,55,0.00,,,0.00,weatherlink.com 1.10,2013-02-01 16:24:00,
2013-02-01 10:39:00,66.8,50.0,30.33,SSE,167,6.0,12.0,56,0.00,,,0.00,weatherlink.com 1.10,2013-02-01 16:39:00,
2013-02-01 10:54:00,67.0,51.0,30.33,SE,140,8.0,11.0,56,0.00,,,0.00,weatherlink.com 1.10,2013-02-01 16:54:00,
2013-02-01 11:09:00,66.4,50.0,30.32,SSE,156,4.0,12.0,56,0.00,,,0.00,weatherlink.com 1.10,2013-02-01 17:09:00,
2013-02-01 11:24:00,66.6,52.0,30.32,SE,139,8.0,13.0,60,0.00,,,0.00,weatherlink.com 1.10,2013-02-01 17:24:00,
2013-02-01 11:39:00,67.9,51.0,30.31,SSE,154,7.0,11.0,56,0.00,,,0.00,weatherlink.com 1.10,2013-02-01 17:39:00,
2013-02-01 11:54:00,67.0,51.0,30.31,ESE,121,10.0,13.0,57,0.00,,,0.00,weatherlink.com 1.10,2013-02-01 17:54:00,
2013-02-01 12:09:00,66.6,51.0,30.30,SSE,151,8.0,12.0,57,0.00,,,0.00,weatherlink.com 1.10,2013-02-01 18:09:00,
2013-02-01 12:24:00,66.4,51.0,30.30,SSE,149,8.0,11.0,57,0.00,,,0.00,weatherlink.com 1.10,2013-02-01 18:24:00,
2013-02-01 12:39:00,66.7,51.0,30.29,SSE,156,7.0,11.0,57,0.00,,,0.00,weatherlink.com 1.10,2013-02-01 18:39:00,
2013-02-01 12:54:00,66.7,51.0,30.28,SSE,147,5.0,14.0,57,0.00,,,0.00,weatherlink.com 1.10,2013-02-01 18:54:00,
2013-02-01 13:09:00,67.4,51.0,30.28,SSE,150,7.0,13.0,57,0.00,,,0.00,weatherlink.com 1.10,2013-02-01 19:09:00,
2013-02-01 13:24:00,66.4,52.0,30.27,SE,134,9.0,13.0,60,0.00,,,0.00,weatherlink.com 1.10,2013-02-01 19:24:00,
2013-02-01 13:39:00,68.1,52.0,30.25,SSE,148,4.0,13.0,57,0.00,,,0.00,weatherlink.com 1.10,2013-02-01 19:39:00,
2013-02-01 13:54:00,66.8,51.0,30.25,SSE,167,7.0,13.0,58,0.00,,,0.00,weatherlink.com 1.10,2013-02-01 19:54:00,
2013-02-01 14:09:00,67.2,52.0,30.24,ESE,117,6.0,13.0,58,0.00,,,0.00,weatherlink.com 1.10,2013-02-01 20:09:00,
2013-02-01 14:25:00,66.5,53.0,30.23,SE,127,8.0,14.0,62,0.00,,,0.00,weatherlink.com 1.10,2013-02-01 20:25:00,
2013-02-01 14:39:00,66.7,53.0,30.23,ESE,112,10.0,13.0,61,0.00,,,0.00,weatherlink.com 1.10,2013-02-01 20:39:00,
2013-02-01 14:54:00,66.6,53.0,30.23,ESE,105,10.0,14.0,61,0.00,,,0.00,weatherlink.com 1.10,2013-02-01 20:54:00,
2013-02-01 15:10:00,67.5,52.0,30.22,East,98,8.0,13.0,59,0.00,,,0.00,weatherlink.com 1.10,2013-02-01 21:10:00,
2013-02-01 15:24:00,66.2,51.0,30.22,ESE,103,7.0,15.0,59,0.00,,,0.00,weatherlink.com 1.10,2013-02-01 21:24:00,
2013-02-01 15:40:00,67.1,53.0,30.21,ESE,108,7.0,14.0,61,0.00,,,0.00,weatherlink.com 1.10,2013-02-01 21:40:00,
2013-02-01 15:54:00,65.9,52.0,30.22,ESE,123,13.0,15.0,61,0.00,,,0.00,weatherlink.com 1.10,2013-02-01 21:54:00,
2013-02-01 16:09:00,66.2,52.0,30.21,ESE,111,11.0,12.0,60,0.00,,,0.00,weatherlink.com 1.10,2013-02-01 22:09:00,
2013-02-01 16:24:00,65.7,52.0,30.21,ESE,103,6.0,14.0,61,0.00,,,0.00,weatherlink.com 1.10,2013-02-01 22:24:00,
2013-02-01 16:40:00,65.8,51.0,30.21,ESE,111,8.0,13.0,59,0.00,,,0.00,weatherlink.com 1.10,2013-02-01 22:40:00,
2013-02-01 16:54:00,65.3,52.0,30.21,East,84,6.0,12.0,62,0.00,,,0.00,weatherlink.com 1.10,2013-02-01 22:54:00,
2013-02-01 17:09:00,64.8,53.0,30.21,East,88,5.0,11.0,65,0.00,,,0.00,weatherlink.com 1.10,2013-02-01 23:09:00,
2013-02-01 17:24:00,64.2,53.0,30.21,East,100,7.0,11.0,67,0.00,,,0.00,weatherlink.com 1.10,2013-02-01 23:24:00,
2013-02-01 17:40:00,64.0,54.0,30.21,ESE,122,4.0,8.0,69,0.00,,,0.00,weatherlink.com 1.10,2013-02-01 23:40:00,
2013-02-01 17:55:00,63.5,54.0,30.21,ESE,109,7.0,9.0,70,0.00,,,0.00,weatherlink.com 1.10,2013-02-01 23:55:00,
2013-02-01 18:09:00,62.9,54.0,30.20,ESE,121,6.0,8.0,73,0.00,,,0.00,weatherlink.com 1.10,2013-02-02 00:09:00,
2013-02-01 18:25:00,62.5,54.0,30.20,ESE,102,4.0,8.0,73,0.00,,,0.00,weatherlink.com 1.10,2013-02-02 00:25:00,
2013-02-01 18:39:00,62.5,54.0,30.21,SE,125,4.0,7.0,74,0.00,,,0.00,weatherlink.com 1.10,2013-02-02 00:39:00,
2013-02-01 18:55:00,62.3,54.0,30.21,ESE,118,5.0,7.0,75,0.00,,,0.00,weatherlink.com 1.10,2013-02-02 00:55:00,
2013-02-01 19:09:00,62.1,54.0,30.21,SE,138,5.0,7.0,76,0.00,,,0.00,weatherlink.com 1.10,2013-02-02 01:09:00,
2013-02-01 19:25:00,61.8,55.0,30.21,SE,130,5.0,6.0,79,0.00,,,0.00,weatherlink.com 1.10,2013-02-02 01:25:00,
2013-02-01 19:39:00,61.5,55.0,30.21,SE,138,1.0,6.0,80,0.00,,,0.00,weatherlink.com 1.10,2013-02-02 01:39:00,
2013-02-01 19:55:00,61.5,56.0,30.21,SSE,156,2.0,6.0,81,0.00,,,0.00,weatherlink.com 1.10,2013-02-02 01:55:00,
2013-02-01 20:09:00,61.8,56.0,30.21,SE,140,4.0,7.0,80,0.00,,,0.00,weatherlink.com 1.10,2013-02-02 02:09:00,
2013-02-01 20:24:00,62.0,56.0,30.21,SE,136,2.0,7.0,80,0.00,,,0.00,weatherlink.com 1.10,2013-02-02 02:24:00,
2013-02-01 20:40:00,62.1,55.0,30.21,SE,144,3.0,7.0,78,0.00,,,0.00,weatherlink.com 1.10,2013-02-02 02:40:00,
2013-02-01 20:55:00,62.1,56.0,30.21,SE,131,2.0,7.0,79,0.00,,,0.00,weatherlink.com 1.10,2013-02-02 02:55:00,
2013-02-01 21:10:00,62.1,56.0,30.22,SE,125,5.0,6.0,80,0.00,,,0.00,weatherlink.com 1.10,2013-02-02 03:10:00,
2013-02-01 21:25:00,62.1,56.0,30.21,SE,136,1.0,7.0,79,0.00,,,0.00,weatherlink.com 1.10,2013-02-02 03:25:00,
2013-02-01 21:40:00,62.4,56.0,30.21,SSE,151,3.0,10.0,79,0.00,,,0.00,weatherlink.com 1.10,2013-02-02 03:40:00,
2013-02-01 21:55:00,62.4,56.0,30.21,SE,144,6.0,8.0,79,0.00,,,0.00,weatherlink.com 1.10,2013-02-02 03:55:00,
2013-02-01 22:10:00,62.3,56.0,30.21,SE,140,5.0,7.0,80,0.00,,,0.00,weatherlink.com 1.10,2013-02-02 04:10:00,
2013-02-01 22:25:00,62.4,56.0,30.21,SE,144,6.0,8.0,80,0.00,,,0.00,weatherlink.com 1.10,2013-02-02 04:25:00,
2013-02-01 22:40:00,62.5,56.0,30.21,SE,145,6.0,9.0,80,0.00,,,0.00,weatherlink.com 1.10,2013-02-02 04:40:00,
2013-02-01 22:55:00,62.6,56.0,30.20,SE,139,4.0,10.0,79,0.00,,,0.00,weatherlink.com 1.10,2013-02-02 04:55:00,
2013-02-01 23:10:00,62.7,56.0,30.20,SE,140,7.0,10.0,79,0.00,,,0.00,weatherlink.com 1.10,2013-02-02 05:10:00,
2013-02-01 23:25:00,62.7,56.0,30.20,SE,138,6.0,8.0,80,0.00,,,0.00,weatherlink.com 1.10,2013-02-02 05:25:00,
2013-02-01 23:40:00,62.8,57.0,30.19,SE,140,2.0,8.0,80,0.00,,,0.00,weatherlink.com 1.10,2013-02-02 05:40:00,
2013-02-01 23:55:00,62.7,57.0,30.19,SSE,158,6.0,7.0,81,0.00,,,0.00,weatherlink.com 1.10,2013-02-02 05:55:00,